Waarnemingen

Advertentie
Mijn weer
Bolzano, Italië (16020): temperatuur & dauwpunt: 11.08.2018 19:00:00 - 17.08.2018 19:00:00 (CEST)Bolzano, Italië (16020): windsnelheid: 11.08.2018 19:00:00 - 17.08.2018 19:00:00 (CEST)Bolzano, Italië (16020): windrichting: 11.08.2018 19:00:00 - 17.08.2018 19:00:00 (CEST)Bolzano, Italië (16020): luchtdruk: 11.08.2018 19:00:00 - 17.08.2018 19:00:00 (CEST)Bolzano, Italië (16020): zicht: 11.08.2018 19:00:00 - 17.08.2018 19:00:00 (CEST)Bolzano, Italië (16020): neerslag: 11.08.2018 19:00:00 - 17.08.2018 19:00:00 (CEST)
Datum & Tijd tt [°C] td [°C] ff [km/u] ff [kn] dd ppp [hPa] vv [km] rr [mm]
17.08.2018 19:00:00 31,0 14,0 16 9 Z - 10 -
17.08.2018 18:00:00 32,0 12,0 15 8 Z - 10 -
17.08.2018 17:00:00 33,3 11,8 13 7 Z 1009,4 10 -
17.08.2018 16:00:00 33,0 12,0 13 7 ZZO - 10 -
17.08.2018 15:00:00 32,0 13,0 11 6 Z - 10 -
17.08.2018 14:00:00 32,3 13,2 8 4 Z 1011,4 10 0,0
17.08.2018 13:00:00 30,0 13,0 5 3 Z - 10 -
17.08.2018 12:00:00 28,0 14,0 4 2 - - 10 -
17.08.2018 11:00:00 27,3 15,1 0 0 N 1014,4 10 -
17.08.2018 10:00:00 24,0 14,0 0 0 N - 10 -
17.08.2018 09:00:00 22,0 16,0 0 0 N - 10 -
17.08.2018 08:00:00 19,3 15,8 2 1 - 1016,3 10 0,0
17.08.2018 07:00:00 18,0 15,0 0 0 N - 10 -
17.08.2018 06:00:00 - - - - - - - -
17.08.2018 05:00:00 19,0 15,6 4 2 NW 1015,5 - -
17.08.2018 04:00:00 - - - - - - - -
17.08.2018 03:00:00 - - - - - - - -
17.08.2018 02:00:00 21,0 16,3 2 1 ZZO 1015,3 - 0,0
17.08.2018 01:00:00 - - - - - - - -
17.08.2018 00:00:00 - - - - - - - -
16.08.2018 23:00:00 24,1 14,2 5 3 Z 1014,8 10 -
16.08.2018 22:00:00 24,0 14,0 8 4 Z - 10 -
16.08.2018 21:00:00 26,0 14,0 11 6 ZZO - 10 -
16.08.2018 20:00:00 26,8 14,1 16 9 ZZO 1012,5 10 0,0
16.08.2018 19:00:00 29,0 14,0 16 9 ZZO - 10 -
16.08.2018 18:00:00 31,0 14,0 16 9 Z - 10 -
16.08.2018 17:00:00 31,3 13,3 15 8 Z 1011,3 10 -
16.08.2018 16:00:00 32,0 13,0 13 7 Z - 10 -
16.08.2018 15:00:00 31,0 14,0 11 6 Z - 10 -
16.08.2018 14:00:00 30,7 13,2 9 5 Z 1013,2 10 0,0
16.08.2018 13:00:00 28,0 12,0 9 5 ZZO - 10 -
16.08.2018 12:00:00 27,0 10,0 5 3 ZO - 10 -
16.08.2018 11:00:00 26,0 11,4 5 3 OZO 1016,9 10 -
16.08.2018 10:00:00 23,0 11,0 5 3 - - 10 -
16.08.2018 09:00:00 20,0 13,0 5 3 - - 10 -
16.08.2018 08:00:00 19,1 12,0 5 3 Z 1018,8 10 0,0
16.08.2018 07:00:00 17,0 12,0 0 0 N - 10 -
16.08.2018 06:00:00 - - - - - - - -
16.08.2018 05:00:00 18,8 12,1 4 2 ZO 1018,2 - -
16.08.2018 04:00:00 - - - - - - - -
16.08.2018 03:00:00 - - - - - - - -
16.08.2018 02:00:00 20,7 13,8 2 1 Z 1018,0 - 0,0
16.08.2018 01:00:00 - - - - - - - -
16.08.2018 00:00:00 - - - - - - - -
15.08.2018 23:00:00 22,0 14,9 4 2 - 1016,9 10 -
15.08.2018 22:00:00 24,0 14,0 2 1 - - 10 -
15.08.2018 21:00:00 26,0 12,0 9 5 ZZO - 10 -
15.08.2018 20:00:00 27,5 12,3 9 5 ZO 1013,5 10 0,0
15.08.2018 19:00:00 29,0 12,0 9 5 ZZO - 10 -
15.08.2018 18:00:00 32,0 12,0 8 4 Z - 10 -
15.08.2018 17:00:00 33,2 7,2 5 3 O 1012,6 10 -
15.08.2018 16:00:00 31,0 8,0 8 4 NNW - 10 -
15.08.2018 15:00:00 31,0 10,0 4 2 - - 10 -
15.08.2018 14:00:00 29,9 9,4 5 3 WNW 1014,2 10 0,0
15.08.2018 13:00:00 28,0 10,0 4 2 - - 10 -
15.08.2018 12:00:00 27,0 11,0 0 0 N - 10 -
15.08.2018 11:00:00 25,4 12,0 0 0 N 1016,7 10 -
15.08.2018 10:00:00 22,0 12,0 0 0 N - 10 -
15.08.2018 09:00:00 19,0 14,0 0 0 N - 10 -
15.08.2018 08:00:00 16,0 14,3 0 0 N 1018,4 10 0,0
15.08.2018 07:00:00 15,0 14,0 0 0 N - 10 -
15.08.2018 06:00:00 - - - - - - - -
15.08.2018 05:00:00 15,9 14,7 2 1 O 1017,1 - -
15.08.2018 04:00:00 - - - - - - - -
15.08.2018 03:00:00 - - - - - - - -
15.08.2018 02:00:00 16,7 15,4 4 2 WZW 1016,5 - 0,0
15.08.2018 01:00:00 - - - - - - - -
15.08.2018 00:00:00 - - - - - - - -
14.08.2018 23:00:00 20,3 16,1 5 3 ZO 1015,0 10 -
14.08.2018 22:00:00 22,0 15,0 4 2 - - 10 -
14.08.2018 21:00:00 23,0 12,0 5 3 - - 10 -
14.08.2018 20:00:00 24,9 16,4 8 4 WNW 1012,1 10 0,0
14.08.2018 19:00:00 27,0 14,0 4 2 - - 10 -
14.08.2018 18:00:00 26,0 14,0 18 10 NNW - 10 -
14.08.2018 17:00:00 28,9 15,7 9 5 NW 1009,9 10 -
14.08.2018 16:00:00 30,0 14,0 5 3 - - 10 -
14.08.2018 15:00:00 28,0 16,0 13 7 Z - 10 -
14.08.2018 14:00:00 28,6 17,3 5 3 Z 1010,0 10 0,0
14.08.2018 13:00:00 27,0 16,0 5 3 - - 10 -
14.08.2018 12:00:00 25,0 15,0 4 2 - - 10 -
14.08.2018 11:00:00 23,3 16,5 4 2 - 1012,6 10 -
14.08.2018 10:00:00 21,0 17,0 0 0 N - 10 -
14.08.2018 09:00:00 20,0 18,0 4 2 - - 10 -
14.08.2018 08:00:00 19,5 18,2 4 2 - 1012,8 10 -
14.08.2018 07:00:00 18,0 17,0 5 3 ZO - 10 -
14.08.2018 06:00:00 - - - - - - - -
14.08.2018 05:00:00 18,1 17,4 8 4 ZO 1012,0 - -
14.08.2018 04:00:00 - - - - - - - -
14.08.2018 03:00:00 - - - - - - - -
14.08.2018 02:00:00 19,7 18,1 4 2 NO 1011,4 - -
14.08.2018 01:00:00 - - - - - - - -
14.08.2018 00:00:00 - - - - - - - -
13.08.2018 23:00:00 22,9 18,2 11 6 NW 1010,0 10 -
13.08.2018 22:00:00 25,0 17,0 8 4 N - 10 -
13.08.2018 21:00:00 26,0 15,0 8 4 ZZO - 10 -
13.08.2018 20:00:00 26,1 15,8 8 4 Z 1008,1 10 0,0
13.08.2018 19:00:00 28,0 16,0 9 5 Z - 10 -
13.08.2018 18:00:00 29,0 15,0 11 6 Z - 10 -
13.08.2018 17:00:00 29,0 12,7 21 11 ZZO 1008,3 10 -
13.08.2018 16:00:00 30,0 16,0 21 11 Z - 10 -
13.08.2018 15:00:00 32,0 14,0 15 8 Z - 10 -
13.08.2018 14:00:00 32,0 14,3 9 5 Z 1008,8 10 0,0
13.08.2018 13:00:00 30,0 15,0 9 5 ZZO - 10 -
13.08.2018 12:00:00 27,0 16,0 9 5 ZZW - 10 -
13.08.2018 11:00:00 27,6 16,4 0 0 N 1012,8 10 -
13.08.2018 10:00:00 25,0 16,0 4 2 - - 10 -
13.08.2018 09:00:00 23,0 16,0 0 0 N - 10 -
13.08.2018 08:00:00 21,4 16,8 5 3 ZZO 1014,1 10 0,0
13.08.2018 07:00:00 19,0 17,0 5 3 WNW - 10 -
13.08.2018 06:00:00 - - - - - - - -
13.08.2018 05:00:00 18,8 17,0 2 1 Z 1014,2 - -
13.08.2018 04:00:00 - - - - - - - -
13.08.2018 03:00:00 - - - - - - - -
13.08.2018 02:00:00 21,3 17,8 2 1 NW 1015,1 - 0,0
13.08.2018 01:00:00 - - - - - - - -
13.08.2018 00:00:00 - - - - - - - -
12.08.2018 23:00:00 23,2 16,6 2 1 - 1014,8 10 -
12.08.2018 22:00:00 25,0 16,0 5 3 - - 10 -
12.08.2018 21:00:00 26,0 16,0 8 4 Z - 10 -
12.08.2018 20:00:00 26,9 15,4 13 7 ZZO 1013,5 10 0,0
12.08.2018 19:00:00 29,0 16,0 15 8 Z - 10 -
12.08.2018 18:00:00 29,0 16,0 13 7 ZZO - 10 -
12.08.2018 17:00:00 30,3 15,3 15 8 Z 1013,2 10 -
12.08.2018 16:00:00 30,0 16,0 11 6 Z - 10 -
12.08.2018 15:00:00 28,0 15,0 15 8 Z - 10 -
12.08.2018 14:00:00 29,2 15,8 15 8 ZZO 1015,3 10 0,0
12.08.2018 13:00:00 29,0 15,0 8 4 ZZO - 10 -
12.08.2018 12:00:00 28,0 16,0 5 3 ZZW - 10 -
12.08.2018 11:00:00 27,9 15,3 4 2 - 1017,5 10 -
12.08.2018 10:00:00 25,0 15,0 2 1 - - 10 -
12.08.2018 09:00:00 22,0 16,0 4 2 WNW - 10 -
12.08.2018 08:00:00 21,7 16,7 0 0 N 1019,0 10 0,0
12.08.2018 07:00:00 20,0 16,0 0 0 N - 10 -
12.08.2018 06:00:00 - - - - - - - -
12.08.2018 05:00:00 20,7 15,6 4 2 NO 1018,5 - -
12.08.2018 04:00:00 - - - - - - - -
12.08.2018 03:00:00 - - - - - - - -
12.08.2018 02:00:00 23,7 15,0 2 1 N 1018,1 - 0,0
12.08.2018 01:00:00 - - - - - - - -
12.08.2018 00:00:00 - - - - - - - -
11.08.2018 23:00:00 23,9 16,5 4 2 - 1017,0 10 -
11.08.2018 22:00:00 25,0 16,0 8 4 Z - 10 -
11.08.2018 21:00:00 27,0 15,0 9 5 ZZO - 10 -
11.08.2018 20:00:00 28,2 15,2 13 7 ZZO 1014,7 10 0,0
11.08.2018 19:00:00 30,0 15,0 15 8 ZZO - 10 -

tt = temperatuur
td = dauwpunt
ff = windsnelheid
dd = windrichting
ppp = luchtdruk
vv = zicht
rr = neerslag

Weerstations in de omgeving